Location: Piotrkow Trybunalski
(51.4000°N, 19.6830°E)
Time: 23:40:11
(UTC+01:00)

A-11 Canister half - Pass Details

Date: 13 December 2023
Orbit: 1512 x 1687 km, 47.2° (Epoch: 22 February)

Event Time Altitude Azimuth Distance (km) Brightness Sun altitude
Exits shadow 04:15:07 34° 213° (SSW) 2,476 9.7 -30.2°
Drops below altitude 10° 04:23:19 10° 159° (SSE) 3,934 11.4 -28.9°
Sets 04:26:52 0° 151° (SSE) 4,928 12.1 -28.4°
